This is the latest recevied weather packets stored in our database for station/object KO4IDC-13. If no packets are shown the sender has not sent any weather packets the latest 10 day(s).
| Time | Temp. | Humidity | Pressure | Rain* | Wind** | Luminosity | Snow |
|---|---|---|---|---|---|---|---|
| 1778159308 | 12.22° C | 56% | 1019.6 hPa | 0 mm | - | 283 W/m² | - |
| 1778159005 | 11.67° C | 57% | 1019.6 hPa | 0 mm | - | 268 W/m² | - |
| 1778158705 | 11.67° C | 58% | 1019.8 hPa | 0 mm | - | 252 W/m² | - |
| 1778158401 | 11.67° C | 58% | 1019.7 hPa | 0 mm | - | 236 W/m² | - |
| 1778158099 | 11.67° C | 60% | 1019.6 hPa | 0 mm | - | 220 W/m² | - |
| 1778157795 | 11.11° C | 61% | 1019.6 hPa | 0 mm | - | 205 W/m² | - |
| 1778157494 | 11.11° C | 60% | 1019.6 hPa | 0 mm | - | 188 W/m² | - |
| 1778157190 | 11.11° C | 60% | 1019.6 hPa | 0 mm | - | 171 W/m² | - |
| 1778156887 | 10.56° C | 63% | 1019.4 hPa | 0 mm | - | 157 W/m² | - |
| 1778156581 | 11.11° C | 64% | 1019.6 hPa | 0 mm | - | 143 W/m² | - |
| 1778156278 | 10.56° C | 64% | 1019.7 hPa | 0 mm | - | 131 W/m² | - |
| 1778155974 | 10.56° C | 65% | 1019.5 hPa | 0 mm | - | 117 W/m² | - |
| 1778155670 | 10.56° C | 66% | 1019.5 hPa | 0 mm | - | 106 W/m² | - |
| 1778155367 | 10.56° C | 66% | 1019.3 hPa | 0 mm | - | 94 W/m² | - |
| 1778155063 | 10° C | 67% | 1019.3 hPa | 0 mm | - | 84 W/m² | - |
| 1778154759 | 10° C | 67% | 1019.3 hPa | 0 mm | - | 73 W/m² | - |
| 1778154455 | 10° C | 67% | 1019.3 hPa | 0 mm | - | 64 W/m² | - |
| 1778154152 | 10° C | 68% | 1019.3 hPa | 0 mm | - | 56 W/m² | - |
| 1778153850 | 9.44° C | 69% | 1019.2 hPa | 0 mm | - | 47 W/m² | - |
| 1778153546 | 9.44° C | 69% | 1019 hPa | 0 mm | - | 40 W/m² | - |
| 1778153244 | 8.89° C | 71% | 1019.3 hPa | 0 mm | - | 34 W/m² | - |
| 1778152941 | 8.89° C | 72% | 1019.1 hPa | 0 mm | - | 28 W/m² | - |
| 1778152638 | 8.33° C | 75% | 1019.1 hPa | 0 mm | - | 23 W/m² | - |
| 1778152336 | 7.78° C | 75% | 1019.1 hPa | 0 mm | - | 18 W/m² | - |
| 1778152031 | 7.78° C | 76% | 1019.2 hPa | 0 mm | - | 14 W/m² | - |
* Rain latest hour (hover to see other rain measurements)
** Current wind speed in m/s (hover to see current wind gust speed)